Home   Weather   Castrop-Rauxel   Past weeks

Flag for Germany Past Weather in Castrop-Rauxel, North Rhine-Westphalia, Germany — Yesterday and Last 2 Weeks

Now
61 °F

Low clouds.


Feels Like: 61 °F
Forecast: 61 / 69 °F
Wind: 8 mph from Northwest

Location: Duesseldorf

Current Time: Jul 26, 2017 at 4:54:18 am

Latest Report: Jul 26, 2017 at 4:20 am


Visibility: N/A

Pressure: 29.80 "Hg

Humidity: 94%

Dew Point: 59 °F

Location of Castrop-RauxelLocation

Past Weather in Castrop-Rauxel — Graph

°F

Castrop-Rauxel Temperature Yesterday

Maximum temperature yesterday: 66 °F (at 12:50 pm)
Minimum temperature yesterday: 55 °F (at 12:50 am)
Average temperature yesterday: 60 °F

High & Low Weather Summary for the Past Weeks

 TemperatureHumidityPressure
High90 °F (Jul 19, 1:50 pm)100% (Jul 12, 10:31 am)30.24 "Hg (Jul 12, 10:31 am)
Low46 °F (Jul 13, 4:20 am)37% (Jul 18, 3:50 pm)29.68 "Hg (Jul 12, 12:58 pm)
Average66 °F72%29.96 "Hg
* Reported Jul 11 3:20 am — Jul 26 3:20 am, Castrop-Rauxel. Weather by CustomWeather, © 2017

Note: Actual official high and low records may vary slightly from our data, if they occured in-between our weather recording intervals... More about our weather records

Advertising

Castrop-Rauxel Weather History for the Previous 24 Hours

Scroll right to see more
 ConditionsComfort  
Time TempWeatherWind HumidityBarometerVisibility
3:20 am
Wed, Jul 26
61 °FPassing clouds.9 mph94%29.80 "HgN/A
2:50 am61 °FPassing clouds.9 mph94%29.80 "HgN/A
2:20 am61 °FPassing clouds.9 mph94%29.80 "HgN/A
1:50 am61 °FPartly cloudy.10 mph94%29.80 "HgN/A
1:20 am61 °FPartly cloudy.8 mph94%29.80 "HgN/A
12:50 am61 °FPartly cloudy.10 mph94%29.80 "HgN/A
12:20 am61 °FPartly cloudy.10 mph88%29.80 "HgN/A
11:50 pm
Tue, Jul 25
59 °FLight rain. Partly cloudy.10 mph94%29.80 "HgN/A
11:20 pm59 °FLight rain. Overcast.10 mph94%29.80 "HgN/A
10:50 pm59 °FLight rain. Overcast.12 mph94%29.80 "HgN/A
10:20 pm59 °FLight rain. Overcast.13 mph94%29.77 "HgN/A
9:50 pm61 °FLight rain. Mostly cloudy.14 mph88%29.77 "HgN/A
9:20 pm61 °FLight rain. Broken clouds.14 mph88%29.77 "HgN/A
8:50 pm61 °FLight rain. Mostly cloudy.14 mph94%29.77 "HgN/A
8:20 pm61 °FLight rain. Mostly cloudy.15 mph94%29.74 "Hg6 mi
7:50 pm61 °FRain. Partly sunny.15 mph94%29.74 "Hg6 mi
7:20 pm59 °FRain. Partly sunny.18 mph100%29.74 "Hg5 mi
6:50 pm59 °FRain. Partly sunny.18 mph100%29.74 "Hg4 mi
6:32 pm61 °FRain. Partly sunny.13 mph94%29.74 "Hg2 mi
6:20 pm61 °FLight rain. Broken clouds.10 mph94%29.74 "Hg6 mi
5:50 pm61 °FLight rain. Broken clouds.15 mph94%29.77 "HgN/A
5:20 pm61 °FLight rain. Partly sunny.9 mph94%29.77 "HgN/A
4:50 pm61 °FLight rain. Broken clouds.13 mph94%29.77 "HgN/A
4:20 pm63 °FLight rain. Broken clouds.8 mph88%29.77 "HgN/A
3:50 pm61 °FLight rain. Broken clouds.10 mph88%29.77 "HgN/A
3:20 pm61 °FRain. Broken clouds.13 mph88%29.77 "HgN/A
2:56 pm61 °FLight rain. Partly sunny.13 mph88%29.77 "HgN/A
2:20 pm61 °FSprinkles. Broken clouds.12 mph94%29.77 "HgN/A
1:59 pm59 °FLots of rain. Broken clouds.17 mph100%29.80 "HgN/A
1:50 pm63 °FRain showers. Broken clouds.16 mph83%29.77 "Hg6 mi
1:20 pm64 °FScattered showers. Broken clouds.14 mph73%29.77 "HgN/A
12:50 pm66 °FScattered showers. Broken clouds.13 mph64%29.80 "HgN/A
12:20 pm64 °FBroken clouds.14 mph73%29.80 "HgN/A
11:50 am64 °FScattered showers. Broken clouds.14 mph73%29.80 "HgN/A
11:20 am63 °FSprinkles. Broken clouds.13 mph77%29.80 "HgN/A
10:50 am61 °FSprinkles. Broken clouds.9 mph88%29.80 "HgN/A
10:34 am63 °FSprinkles. Partly sunny.10 mph83%29.80 "HgN/A
9:50 am61 °FSprinkles. Broken clouds.12 mph88%29.80 "HgN/A
9:20 am59 °FLight rain. Broken clouds.10 mph94%29.80 "HgN/A
8:50 am59 °FLight rain. Broken clouds.10 mph94%29.80 "HgN/A
8:27 am59 °FSprinkles. Broken clouds.10 mph94%29.80 "Hg5 mi
8:20 am59 °FRain showers. Partly sunny.8 mph94%29.80 "Hg4 mi
8:07 am59 °FRain showers. Partly sunny.9 mph94%29.80 "Hg2 mi
7:50 am59 °FSprinkles. Partly sunny.8 mph94%29.80 "HgN/A
7:20 am57 °FPartly sunny.7 mph94%29.80 "HgN/A
6:50 am57 °FLight rain. Mostly cloudy.8 mph94%29.83 "Hg4 mi
6:20 am57 °FLight rain. Partly sunny.7 mph100%29.83 "Hg4 mi
5:50 am57 °FLight rain. More clouds than sun.6 mph100%29.83 "Hg4 mi
5:20 am57 °FLight rain. Passing clouds.8 mph100%29.83 "Hg4 mi
4:50 am57 °FLight rain. Passing clouds.9 mph94%29.83 "Hg4 mi
4:20 am57 °FLight rain. Passing clouds.9 mph94%29.83 "Hg4 mi
Weather by CustomWeather, © 2017

See weather overviewHow to use our weather pages